• Processing (Info)

  • MPEC 2024-A49 : 2024 AY

    The following Minor Planet Electronic Circular may be linked-to from your own Web pages, but must not otherwise be redistributed electronically.

    A form allowing access to any MPEC is at the bottom of this page.


    Read MPEC 2024-A48 Read MPEC 2024-A50


    M.P.E.C. 2024-A49                               Issued 2024 January 5, 13:56 UT
    
         The Minor Planet Electronic Circulars contain information on unusual
             minor planets, routine data on comets and natural satellites,
             and occasional editorial announcements.  They are published
        on behalf of Division F of the International Astronomical Union by the
              Minor Planet Center, Smithsonian Astrophysical Observatory,
                              Cambridge, MA 02138, U.S.A.
    			  
                 Prepared using the Tamkin Foundation Computer Network
    
                                  MPC@CFA.HARVARD.EDU
                URL https://www.minorplanetcenter.net/    ISSN 1523-6714
    
                                     2024 AY                                 
    
    
    Observations:
         K24A00Y* C2024 01 03.38201206 32 43.435+35 13 25.07         21.51wXEA049F51
         K24A00Y  C2024 01 03.39332606 32 44.372+35 13 43.96         21.85wXEA049F51
         K24A00Y  C2024 01 03.40466806 32 45.310+35 14 02.72         22.00wXEA049F51
         K24A00Y  C2024 01 03.53540006 32 56.208+35 17 31.52         21.39GVEA049F51
         K24A00Y  C2024 01 03.53604406 32 56.280+35 17 32.68         22.65GVEA049F51
         K24A00Y 7C2024 01 04.17334106 34 03.722+35 34 36.12         20.9 GVEA049Z84
         K24A00Y 7C2024 01 04.18904106 34 05.286+35 34 59.48         21.1 GVEA049Z84
         K24A00Y KC2024 01 05.18546706 35 58.31 +36 02 10.0          21.5 GVEA049H21
         K24A00Y KC2024 01 05.19208906 35 58.92 +36 02 20.8          21.8 GVEA049H21
         K24A00Y KC2024 01 05.19703006 35 59.38 +36 02 29.2          21.8 GVEA049H21
    
    Observer details:
    F51 Pan-STARRS 1, Haleakala.  Observers J. Herman, T. Lowe, P. Minguez, A.
        Schultz, I. Smith.  Measurers K. Chambers, T. de Boer, J. Fairlamb, H.
        Gao, M. Huber, C.-C. Lin, E. Magnier, Y. Ramanjooloo, R. Wainscoat, R.
        Weryk.  1.8-m Ritchey-Chretien + CCD.
    H21 Astronomical Research Observatory, Westfield.  Observer R. Holmes.
        Measurers T. Linder, R. Holmes, L. Horn.  0.81-m f/4.0 astrograph + CCD.
    Z84 Calar Alto-Schmidt.  Observers F. Ocana, R. Kresken, M. Micheli, L.
        Conversi.  Measurers F. Ocana, M. Micheli.  0.8-m f/3 Schmidt + CCD.
    
    Orbital elements:
    2024 AY                                                  Earth MOID = 0.1654 AU
    Epoch 2023 Sept. 13.0 TT = JDT 2460200.5                MPC                     
    M 308.11145              (2000.0)            P               Q                  
    n   0.39783414     Peri.   42.13201     -0.47326244     -0.87795457             
    a   1.8309143      Node    76.23170     +0.78708540     -0.45825431             
    e   0.3761499      Incl.    4.26536     +0.39562511     -0.13855956             
    P   2.48           H   24.63          G   0.15           U   9                  
    Residuals in seconds of arc
    240103 F51  0.2-  0.0     240103 F51  0.7+  0.1+    240105 H21  0.0   0.1-
    240103 F51  0.1-  0.2-    240104 Z84  0.1-  0.2+    240105 H21  0.1+  0.1+
    240103 F51  0.1+  0.3-    240104 Z84  0.1-  0.1+
    240103 F51  0.5+  0.1-    240105 H21  0.0   0.0
    
    Ephemeris:
    2024 AY                  a,e,i = 1.83, 0.38, 4                   q = 1.1422
    Date    TT    R. A. (2000) Decl.     Delta      r    Elong.  Phase     V
    2023 12 06    05 57 22.5 +23 33 02   0.2503  1.2279   163.9    12.9    22.8
    ...
    2023 12 21    06 13 24.8 +29 06 44   0.2005  1.1830   172.8     6.0    22.0
    ...
    2023 12 29    06 24 01.4 +32 43 44   0.1840  1.1652   170.5     8.0    21.8
    ...
    2024 01 04    06 33 48.0 +35 30 06   0.1759  1.1550   166.5    11.5    21.9
    2024 01 05    06 35 36.8 +35 57 13   0.1749  1.1536   165.8    12.1    21.9
    2024 01 06    06 37 29.0 +36 24 00   0.1740  1.1523   165.0    12.7    21.9
    ...
    2024 01 12    06 49 58.5 +38 54 26   0.1706  1.1460   160.8    16.4    22.0
    ...
    2024 01 20    07 10 11.9 +41 32 01   0.1712  1.1423   155.9    20.6    22.1
    ...
    2024 02 04    07 55 47.6 +43 16 15   0.1865  1.1500   149.3    26.0    22.5
    
    A. U. Tomatic                (C) Copyright 2024 MPC           M.P.E.C. 2024-A49
    


    Read MPEC 2024-A48 Read MPEC 2024-A50


    MPEC number:

    Enter an MPEC number in one of the following forms:

    • 1997-B01 (the full form)
    • J97B01 (the packed version of the full form)
    • B01 (the abbreviated form)